Attu

KL  EN  DA
ASIAQ
Weather Now GREENLAND SURVEY
Updated [WGT/WGST] Temperature [°C] Wind [m/s] Air pressure [hPa] Relative humidity [%] Precipitation [mm]
Present Wind chill Speed Max
25.02 07:00-16,9-27,87,2 ⇘8,8101584n/a
25.02 06:00-16,8-27,67,2 ⇘9,3101584n/a
25.02 05:00-16,5-27,37,2 ⇘8,8101584n/a
25.02 04:00-17,0-27,56,7 ⇘8,2101583n/a
25.02 03:00-16,8-27,36,7 ⇘8,2101584n/a
25.02 02:00-16,9-27,46,7 ⇘9,3101584n/a
25.02 01:00-17,0-27,97,2 ⇘9,3101483n/a
25.02 00:00-16,7-26,45,7 ⇘7,7101484n/a
24.02 23:00-16,7-26,45,7 ⇘7,7101484n/a
24.02 22:00-17,2-26,55,1 ⇘6,7101483n/a
24.02 21:00-17,1-24,83,6 ⇘5,1101384n/a
24.02 20:00-17,5-26,44,6 ⇘6,7101283n/a
24.02 19:00-17,4-25,84,1 ⇘6,7101283n/a
24.02 18:00-17,8-25,73,6 ⇘5,1101183n/a
24.02 17:00-18,1-26,03,6 ⇘6,2101083n/a
24.02 16:00-17,8-26,84,6 ⇘6,7101083n/a
24.02 15:00-18,1-27,24,6 ⇘6,7100983n/a
24.02 14:00-18,2-26,74,1 ⇘6,7100882n/a
24.02 13:00-17,9-25,83,6 ⇘6,2100782n/a
24.02 12:00-18,1-25,43,1 ⇘5,1100782n/a
24.02 11:00-18,4-27,04,1 ⇘6,7100682n/a
24.02 10:00-18,2-27,85,1 ⇘7,2100583n/a
24.02 09:00-18,4-25,73,1 ⇘5,1100582n/a
24.02 08:00-18,4-27,04,1 ⇘6,2100482n/a
24.02 07:00-18,1-26,03,6 ⇘5,7100383n/a
Position: (67.78416666666,-53.965)

[Back]